STARLINK-30075, 57616

Orbit data source: Space-Track

STARLINK-30075, 57616 is a payload satellite owned by SpaceX/Seattle (US) in LEO that was launched on Fri, 11 Aug 2023 UTC via an FALCON 9 launch vehicle from the Air Force Eastern Test Range (AFETR). Payload-class satellites include a variety of spacecraft equipped with specific instruments for various scientific and technological missions. These include communications satellites like Starlink; space stations such as the ISS; scientific satellites like the Hubble; Earth observation satellites from companies like Planet Labs, Umbra, and HawkEye 360; GPS; miniature CubeSats for education and research; and military/defense satellites.

Loading next visibility...
Identifier
57616, 2023-119Q
Orbit
LEO
Country
Flag of USUS
Related business
Manufacturer
SpaceX/Seattle
Mission
Operational Commercial Communications
Bus & Motor
STARLINK V2M, Unknown motor
Mass
730 kg wet, ~700 kg dry
Launch date (UTC)
2023-08-11 (3 years ago)
Launch vehicle
FALCON 9
Launch site
Air Force Eastern Test Range (AFETR)
Object type
Payload
Rocket body
Debris
Shape & HBR
Box + 2 Pan, 17.7 m
Radar Cross Section
33.884 m², Large (>1 m²)

Expand to show TLE details & history
Last TLE update: 19 hours ago

TLE from 19 hours ago
0 STARLINK-30075
1 57616U 23119Q   26094.60007612 -.00002682  00000-0 -87987-4 0  9997
2 57616  43.0057 294.8615 0002031 278.3915  81.6706 15.27564954147055
Epoch: 2026-04-04T14:24Z
TLE epoch observation values (Epoch: 2026-04-04T14:24:06.576Z)
Latitude
-0.00006°
Longitude
-114.08349°
Altitude
482.669 km
Speed
7.626 km/s
True Right ascension
19h 39m 26s
True Declination
0° 00' 00"
Sunlit
Object was in daylight at epoch
Visualization orbit readout
Latitude
Unknown
Longitude
Unknown
Altitude
Unknown
Speed
Unknown
Apparent Right ascension
Unknown
Apparent Declination
Unknown
Sunlit
N/A
Visualization observer readout
Local Sidereal Time
15:29:21
Azimuth
Unknown
Elevation
Unknown
Doppler factor
Unknown
Orbital elements
Apogee altitude
486.432 km
Perigee altitude
483.644 km
Semi-major axis
6,863.175 km
Eccentricity
0.0002
Inclination
43.0057°
RAAN
294.8615°
Arg. of periapsis
278.3915°
True anomaly
81.69363°
Mean anomaly
81.6706°
Eccentric anomaly
81.68211°
Mean motion
3.81729 °/min
Orbital period
94.31 mins
BSTAR
-0.000087987
Loading maneuver chart data...
Computing Atmospheric mass density...
Loading historical data...
Loading historical data...
Loading historical data...
Loading historical data...
Loading historical data...
Loading historical data...
Loading historical data...

Documentation

Showing up to 5 results
|